Location: *
(51.1248°S, 108.4023°W)
Time: 04:30:56
(UTC+00:00)

Cosmos 1939 Rocket - Pass Details

Date: 15 June 2021
Orbit: 533 x 582 km, 97.4° (Epoch: 31 July)

Event Time Altitude Azimuth Distance (km) Brightness Sun altitude
Rises 13:56:05 0° 334° (NNW) 2,808 6.4 -11.7°
Reaches altitude 10° 13:58:47 10° 315° (NW) 1,920 5.4 -11.4°
Maximum altitude 14:01:45 19° 270° (W) 1,448 4.4 -10.9°
Enters shadow 14:03:35 15° 238° (WSW) 1,650 4.6 -10.7°
